Tracking 17842 objects as of 29-August-2016
HD Live streaming from Space Station
objects crossing your sky now

BONUM 1

Track BONUM 1 now!
BONUM 1 is classified as:


NORAD ID: 25546
Int'l Code: 1998-068A
Perigee: 36,135.2 km
Apogee: 36,150.5 km
Inclination: 3.7 °
Period: 1,454.0 minutes
Semi major axis: 42513 km
RCS: 0.003 m2 (small)
Launch date: November 22, 1998
Source: Commonwealth of Independent States (former USSR) (CIS)
Launch site: AIR FORCE EASTERN TEST RANGE (AFETR)

Television broadcasting; 8 Ku-band, Siberia or Europe, selected.
Your satellite tracking list
Your tracking list is empty





NASA's NSSDC Master Catalog

Two Line Element Set (TLE):
1 25546U 98068A   16240.90396342 -.00000277  00000-0  00000+0 0  9998
2 25546   3.6551  68.7591 0001804 206.4486 153.8304  0.99039240 65071
Source of the keplerian elements: AFSPC

N2YO: 482